Location: Darlington Observatory
(36.4817°N, 105.8156°W)
Time: 17:23:49
(UTC-07:00)

NOSS 3-3 (A) - Visible Passes

Search period start: 29 January 2015 00:00
Search period end: 08 February 2015 00:00
Orbit: 967 x 1247 km, 63.4° (Epoch: 19 January)

Date Brightness Start Highest point End Pass type
(mag) Time Alt. Az. Time Alt. Az. Time Alt. Az.
29 Jan 5.2 18:38:50 10° NW 18:46:07 56° WSW 18:53:38 10° SSE visible
30 Jan 4.6 17:54:03 10° NNW 18:01:31 86° WSW 18:09:18 10° SSE visible
30 Jan 7.1 19:47:37 10° WNW 19:51:53 15° WSW 19:55:42 10° SW visible
31 Jan 6.6 19:01:22 10° WNW 19:07:28 26° WSW 19:13:29 10° SSW visible
01 Feb 5.9 18:16:02 10° NW 18:23:00 42° WSW 18:30:08 10° S visible
02 Feb 7.6 06:19:56 10° ESE 06:21:42 12° ESE 06:23:59 10° E visible
03 Feb 7.3 18:39:09 10° WNW 18:44:18 19° WSW 18:49:09 10° SSW visible
04 Feb 6.3 06:37:25 10° S 06:42:48 31° ESE 06:48:30 10° NE visible
04 Feb 6.6 17:53:22 10° NW 17:59:52 32° WSW 18:06:24 10° S visible
05 Feb 7.0 05:54:38 10° SE 05:58:27 17° ESE 06:02:42 10° ENE visible
06 Feb 7.8 18:17:36 10° W 18:21:06 13° WSW 18:24:03 10° SW visible
07 Feb 5.5 06:13:44 10° S 06:19:37 43° ESE 06:25:50 10° NE visible
